Location: ?????? ??????
(44.3742°N, 135.2221°E)
Time: 03:13:16
(UTC+00:00)

Tsikada Rocket - Pass Details

Date: 19 May 2025
Orbit: 958 x 1008 km, 82.9° (Epoch: 15 June)

Event Time Altitude Azimuth Distance (km) Brightness Sun altitude
Exits shadow 18:15:44 - 193° (SSW) 2,892 6.0 -11.1°
Reaches altitude 10° 18:16:16 10° 193° (SSW) 2,691 5.8 -11.1°
Maximum altitude 18:22:25 75° 279° (W) 995 4.0 -10.3°
Drops below altitude 10° 18:28:35 10° 5° (N) 2,700 7.0 -9.4°
Sets 18:31:07 0° 7° (N) 3,651 7.8 -9.1°
